H1 CPF 2 NER 2021 1 12 9 012 01 glonass133 H2 1403201 9133 40001 2021 1 12 0 0 0 2021 1 15 23 45 0 900 1 1 0 0 0 1 H9 10 0 59226 0.00000 0 10224590.643 -4774036.546 22886291.580 10 0 59226 900.00000 0 10354069.730 -1929034.506 23239904.899 10 0 59226 1800.00000 0 10700760.550 913847.944 23142585.261 10 0 59226 2700.00000 0 11254432.327 3683723.681 22596116.108 10 0 59226 3600.00000 0 11992607.081 6312932.910 21610990.309 10 0 59226 4500.00000 0 12881490.755 8739614.162 20206216.309 10 0 59226 5400.00000 0 13877398.418 10910035.711 18408959.658 10 0 59226 6300.00000 0 14928614.920 12780590.993 16254025.852 10 0 59226 7200.00000 0 15977613.619 14319375.148 13783193.485 10 0 59226 8100.00000 0 16963540.486 15507277.173 11044409.745 10 0 59226 9000.00000 0 17824859.250 16338542.143 8090863.067 10 0 59226 9900.00000 0 18502045.934 16820780.042 4979950.614 10 0 59226 10800.00000 0 18940218.591 16974421.088 1772160.519 10 0 59226 11700.00000 0 19091590.331 16831640.839 -1470109.163 10 0 59226 12600.00000 0 18917640.861 16434800.946 -4683771.101 10 0 59226 13500.00000 0 18390913.520 15834472.103 -7806284.409 10 0 59226 14400.00000 0 17496360.512 15087123.682 -10776880.399 10 0 59226 15300.00000 0 16232178.297 14252578.715 -13537753.401 10 0 59226 16200.00000 0 14610096.753 13391342.928 -16035192.569 10 0 59226 17100.00000 0 12655108.986 12561921.734 -18220631.942 10 0 59226 18000.00000 0 10404652.466 11818239.413 -20051597.750 10 0 59226 18900.00000 0 7907275.383 11207270.073 -21492534.442 10 0 59226 19800.00000 0 5220843.726 10766980.699 -22515493.479 10 0 59226 20700.00000 0 2410363.922 10524673.031 -23100671.866 10 0 59226 21600.00000 0 -454488.292 10495793.888 -23236790.570 10 0 59226 22500.00000 0 -3302030.056 10683263.529 -22921306.149 10 0 59226 23400.00000 0 -6061314.079 11077349.677 -22160452.177 10 0 59226 24300.00000 0 -8664838.350 11656091.811 -20969110.343 10 0 59226 25200.00000 0 -11051110.996 12386257.167 -19370514.233 10 0 59226 26100.00000 0 -13166964.541 13224787.634 -17395791.978 10 0 59226 27000.00000 0 -14969524.545 14120676.197 -15083356.896 10 0 59226 27900.00000 0 -16427752.067 15017193.602 -12478158.063 10 0 59226 28800.00000 0 -17523497.103 15854371.342 -9630805.425 10 0 59226 29700.00000 0 -18252020.668 16571636.316 -6596586.434 10 0 59226 30600.00000 0 -18621965.295 17110486.200 -3434393.165 10 0 59226 31500.00000 0 -18654776.652 17417092.866 -205580.819 10 0 59226 32400.00000 0 -18383601.937 17444724.251 3027220.361 10 0 59226 33300.00000 0 -17851712.443 17155882.624 6201316.780 10 0 59226 34200.00000 0 -17110517.453 16524069.172 9255163.303 10 0 59226 35100.00000 0 -16217253.580 15535100.429 12129551.928 10 0 59226 36000.00000 0 -15232447.059 14187920.787 14768754.532 10 0 59226 36900.00000 0 -14217255.752 12494876.375 17121597.888 10 0 59226 37800.00000 0 -13230802.456 10481437.968 19142450.630 10 0 59226 38700.00000 0 -12327611.254 8185383.360 20792103.612 10 0 59226 39600.00000 0 -11555254.201 5655472.119 22038527.136 10 0 59226 40500.00000 0 -10952306.761 2949666.452 22857490.895 10 0 59226 41400.00000 0 -10546697.489 132970.647 23233035.037 10 0 59226 42300.00000 0 -10354521.120 -2725022.575 23157783.322 10 0 59226 43200.00000 0 -10379364.934 -5552778.452 22633092.257 10 0 59226 44100.00000 0 -10612177.018 -8279550.815 21669032.941 10 0 59226 45000.00000 0 -11031682.522 -10838084.657 20284205.309 10 0 59226 45900.00000 0 -11605331.137 -13167179.294 18505387.542 10 0 59226 46800.00000 0 -12290736.761 -15214006.185 16367026.412 10 0 59226 47700.00000 0 -13037549.517 -16936085.176 13910577.462 10 0 59226 48600.00000 0 -13789681.862 -18302836.946 11183706.861 10 0 59226 49500.00000 0 -14487795.230 -19296646.814 8239369.668 10 0 59226 50400.00000 0 -15071942.258 -19913395.266 5134782.009 10 0 59226 51300.00000 0 -15484252.553 -20162433.002 1930307.004 10 0 59226 52200.00000 0 -15671547.739 -20066001.688 -1311723.675 10 0 59226 53100.00000 0 -15587774.118 -19658125.082 -4528229.014 10 0 59226 54000.00000 0 -15196148.760 -18983017.850 -7656614.152 10 0 59226 54900.00000 0 -14470926.901 -18093079.932 -10635997.090 10 0 59226 55800.00000 0 -13398714.540 -17046562.043 -13408401.686 10 0 59226 56700.00000 0 -11979269.531 -15905001.858 -15919892.774 10 0 59226 57600.00000 0 -10225756.216 -14730540.103 -18121630.607 10 0 59226 58500.00000 0 -8164441.961 -13583230.650 -19970823.568 10 0 59226 59400.00000 0 -5833847.628 -12518458.719 -21431560.455 10 0 59226 60300.00000 0 -3283386.964 -11584576.287 -22475506.318 10 0 59226 61200.00000 0 -571551.575 -10820854.334 -23082448.634 10 0 59226 62100.00000 0 2236283.086 -10255837.757 -23240683.831 10 0 59226 63000.00000 0 5070339.575 -9906171.495 -22947237.312 10 0 59226 63900.00000 0 7859104.998 -9775946.418 -22207913.391 10 0 59226 64800.00000 0 10532071.852 -9856591.416 -21037174.823 10 0 59226 65700.00000 0 13022439.748 -10127315.222 -19457854.785 10 0 59226 66600.00000 0 15269666.383 -10556078.367 -17500707.302 10 0 59226 67500.00000 0 17221762.616 -11101053.464 -15203805.121 10 0 59226 68400.00000 0 18837237.247 -11712511.649 -12611796.802 10 0 59226 69300.00000 0 20086611.634 -12335055.139 -9775037.566 10 0 59226 70200.00000 0 20953442.354 -12910101.459 -6748610.745 10 0 59226 71100.00000 0 21434810.576 -13378514.388 -3591258.740 10 0 59226 72000.00000 0 21541259.002 -13683270.530 -364244.304 10 0 59226 72900.00000 0 21296180.312 -13772049.004 2869835.849 10 0 59226 73800.00000 0 20734683.880 -13599634.981 6048262.188 10 0 59226 74700.00000 0 19901989.217 -13130035.656 9109404.746 10 0 59226 75600.00000 0 18851414.242 -12338219.307 11993913.495 10 0 59226 76500.00000 0 17642043.263 -11211403.853 14645863.893 10 0 59226 77400.00000 0 16336172.686 -9749840.206 17013835.723 10 0 59226 78300.00000 0 14996641.549 -7967056.675 19051904.824 10 0 59226 79200.00000 0 13684158.544 -5889553.086 20720529.091 10 0 59226 80100.00000 0 12454737.145 -3555956.105 21987312.061 10 0 59226 81000.00000 0 11357345.815 -1015669.485 22827629.869 10 0 59226 81900.00000 0 10431871.204 1672926.240 23225109.795 10 0 59226 82800.00000 0 9707479.256 4444651.301 23171951.288 10 0 59226 83700.00000 0 9201442.592 7229992.694 22669083.203 10 0 59226 84600.00000 0 8918483.235 9957757.728 21726153.808 10 0 59226 85500.00000 0 8850658.375 12557806.096 20361353.168 10 0 59227 0.00000 0 8977794.254 14963748.051 18601070.507 10 0 59227 900.00000 0 9268450.498 17115497.084 16479391.927 10 0 59227 1800.00000 0 9681374.430 18961571.576 14037447.919 10 0 59227 2700.00000 0 10167385.123 20461048.575 11322621.417 10 0 59227 3600.00000 0 10671607.339 21585089.417 8387631.753 10 0 59227 4500.00000 0 11135961.411 22317971.894 5289511.542 10 0 59227 5400.00000 0 11501803.323 22657586.124 2088496.343 10 0 59227 6300.00000 0 11712602.677 22615372.948 -1153151.148 10 0 59227 7200.00000 0 11716544.227 22215707.526 -4372358.819 10 0 59227 8100.00000 0 11468941.647 21494754.323 -7506480.327 10 0 59227 9000.00000 0 10934359.982 20498842.250 -10494522.731 10 0 59227 9900.00000 0 10088355.570 19282429.125 -13278341.587 10 0 59227 10800.00000 0 8918758.538 17905742.172 -15803779.363 10 0 59227 11700.00000 0 7426442.384 16432194.878 -18021724.265 10 0 59227 12600.00000 0 5625547.188 14925689.889 -19889068.332 10 0 59227 13500.00000 0 3543146.067 13447922.209 -21369546.010 10 0 59227 14400.00000 0 1218368.171 12055796.502 -22434437.013 10 0 59227 15300.00000 0 -1298985.602 10799067.212 -23063120.134 10 0 59227 16200.00000 0 -3950276.696 9718300.309 -23243467.836 10 0 59227 17100.00000 0 -6670236.682 8843241.582 -22972074.617 10 0 59227 18000.00000 0 -9389456.948 8191659.054 -22254315.389 10 0 59227 18900.00000 0 -12037057.055 7768706.868 -21104233.407 10 0 59227 19800.00000 0 -14543421.251 7566836.099 -19544260.427 10 0 59227 20700.00000 0 -16842889.749 7566254.863 -17604774.965 10 0 59227 21600.00000 0 -18876293.536 7735917.032 -15323507.443 10 0 59227 22500.00000 0 -20593228.064 8034996.869 -12744803.906 10 0 59227 23400.00000 0 -21953971.958 8414786.534 -9918762.689 10 0 59227 24300.00000 0 -22930971.804 8820935.739 -6900260.759 10 0 59227 25200.00000 0 -23509832.133 9195938.576 -3747888.579 10 0 59227 26100.00000 0 -23689770.287 9481762.242 -522814.191 10 0 59227 27000.00000 0 -23483518.256 9622506.478 2712401.481 10 0 59227 27900.00000 0 -22916676.575 9566981.321 5895015.227 10 0 59227 28800.00000 0 -22026548.169 9271094.300 8963314.528 10 0 59227 29700.00000 0 -20860501.733 8699946.194 11857809.635 10 0 59227 30600.00000 0 -19473933.613 7829546.754 14522381.890 10 0 59227 31500.00000 0 -17927913.852 6648077.703 16905366.333 10 0 59227 32400.00000 0 -16286614.913 5156649.242 18960548.164 10 0 59227 33300.00000 0 -14614630.453 3369517.278 20648054.287 10 0 59227 34200.00000 0 -12974295.906 1313751.105 21935123.212 10 0 59227 35100.00000 0 -11423122.322 -971636.115 22796738.947 10 0 59227 36000.00000 0 -10011450.108 -3437059.483 23216117.003 10 0 59227 36900.00000 0 -8780420.121 -6024181.647 23185033.263 10 0 59227 37800.00000 0 -7760346.423 -8668105.333 22703989.283 10 0 59227 38700.00000 0 -6969558.280 -11299849.624 21782210.508 10 0 59227 39600.00000 0 -6413759.749 -13849008.433 20437476.753 10 0 59227 40500.00000 0 -6085933.550 -16246481.795 18695787.461 10 0 59227 41400.00000 0 -5966793.362 -18427167.199 16590867.171 10 0 59227 42300.00000 0 -6025765.718 -20332499.218 14163519.824 10 0 59227 43200.00000 0 -6222460.316 -21912731.715 11460843.458 10 0 59227 44100.00000 0 -6508566.855 -23128867.073 8535319.752 10 0 59227 45000.00000 0 -6830098.244 -23954151.375 5443795.691 10 0 59227 45900.00000 0 -7129885.007 -24375072.399 2246376.982 10 0 59227 46800.00000 0 -7350214.722 -24391818.152 -994745.095 10 0 59227 47700.00000 0 -7435503.867 -24018176.317 -4216509.907 10 0 59227 48600.00000 0 -7334887.740 -23280878.801 -7356222.347 10 0 59227 49500.00000 0 -7004617.428 -22218419.128 -10352781.379 10 0 59227 50400.00000 0 -6410160.981 -20879392.896 -13147877.211 10 0 59227 51300.00000 0 -5527918.470 -19320431.841 -15687132.936 10 0 59227 52200.00000 0 -4346477.134 -17603819.178 -17921167.653 10 0 59227 53100.00000 0 -2867352.493 -15794887.370 -19806559.846 10 0 59227 54000.00000 0 -1105183.180 -13959308.364 -21306692.116 10 0 59227 54900.00000 0 912629.544 -12160390.542 -22392460.976 10 0 59227 55800.00000 0 3146823.127 -10456496.020 -23042838.195 10 0 59227 56700.00000 0 5547678.686 -8898686.349 -23245273.415 10 0 59227 57600.00000 0 8056871.346 -7528694.704 -22995930.836 10 0 59227 58500.00000 0 10609689.017 -6377308.588 -22299756.072 10 0 59227 59400.00000 0 13137527.501 -5463229.552 -21170372.491 10 0 59227 60300.00000 0 15570558.382 -4792456.219 -19629809.596 10 0 59227 61200.00000 0 17840458.947 -4358214.970 -17708069.091 10 0 59227 62100.00000 0 19883091.004 -4141439.549 -15442537.333 10 0 59227 63000.00000 0 21641017.589 -4111777.944 -12877255.670 10 0 59227 63900.00000 0 23065753.286 -4229082.858 -10062062.944 10 0 59227 64800.00000 0 24119655.065 -4445321.860 -7051626.769 10 0 59227 65700.00000 0 24777375.504 -4706825.818 -3904382.357 10 0 59227 66600.00000 0 25026818.475 -4956780.102 -681399.509 10 0 59227 67500.00000 0 24869558.178 -5137852.955 2554800.274 10 0 59227 68400.00000 0 24320704.768 -5194849.770 5741453.699 10 0 59227 69300.00000 0 23408222.856 -5077281.013 8816769.139 10 0 59227 70200.00000 0 22171731.999 -4741735.266 11721120.298 10 0 59227 71100.00000 0 20660839.702 -4153957.063 14398197.222 10 0 59227 72000.00000 0 18933076.902 -3290541.668 16796092.655 10 0 59227 72900.00000 0 17051522.169 -2140174.911 18868303.176 10 0 59227 73800.00000 0 15082213.654 -704365.207 20574626.303 10 0 59227 74700.00000 0 13091456.427 1002364.002 21881936.704 10 0 59227 75600.00000 0 11143136.956 2952830.801 22764827.034 10 0 59227 76500.00000 0 9296156.055 5108087.044 23206101.389 10 0 59227 77400.00000 0 7602086.641 7418810.742 23197112.008 10 0 59227 78300.00000 0 6103153.314 9827142.392 22737932.661 10 0 59227 79200.00000 0 4830617.395 12268890.509 21837365.034 10 0 59227 80100.00000 0 3803634.471 14676016.104 20512777.368 10 0 59227 81000.00000 0 3028631.821 16979293.965 18789777.673 10 0 59227 81900.00000 0 2499231.579 19111040.929 16701726.817 10 0 59227 82800.00000 0 2196722.801 21007797.868 14289099.958 10 0 59227 83700.00000 0 2091062.496 22612853.696 11598707.729 10 0 59227 84600.00000 0 2142363.376 23878505.723 8682791.493 10 0 59227 85500.00000 0 2302805.408 24767961.242 5598009.819 10 0 59228 0.00000 0 2518890.016 25256800.085 2404335.763 10 0 59228 900.00000 0 2733940.813 25333935.774 -836113.826 10 0 59228 1800.00000 0 2890744.735 25002035.165 -4060292.576 10 0 59228 2700.00000 0 2934219.544 24277376.904 -7205459.350 10 0 59228 3600.00000 0 2813994.617 23189156.209 -10210407.568 10 0 59228 4500.00000 0 2486793.533 21778264.068 -13016664.416 10 0 59228 5400.00000 0 1918516.607 20095593.105 -15569635.674 10 0 59228 6300.00000 0 1085933.857 18199941.686 -17819673.126 10 0 59228 7200.00000 0 -22084.237 16155605.015 -19723043.225 10 0 59228 8100.00000 0 -1403851.124 14029754.933 -21242777.996 10 0 59228 9000.00000 0 -3044694.750 11889718.731 -22349391.751 10 0 59228 9900.00000 0 -4917342.045 9800271.293 -23021449.977 10 0 59228 10800.00000 0 -6982841.794 7821053.767 -23245979.914 10 0 59228 11700.00000 0 -9191987.693 6004226.257 -23018715.537 10 0 59228 12600.00000 0 -11487182.393 4392451.919 -22344172.802 10 0 59228 13500.00000 0 -13804665.035 3017295.500 -21235554.388 10 0 59228 14400.00000 0 -16077009.650 1898101.812 -19714486.262 10 0 59228 15300.00000 0 -18235790.492 1041399.455 -17810591.612 10 0 59228 16200.00000 0 -20214303.554 440852.954 -15560910.656 10 0 59228 17100.00000 0 -21950231.169 77763.551 -13009177.694 10 0 59228 18000.00000 0 -23388138.911 -77903.987 -10204969.546 10 0 59228 18900.00000 0 -24481701.103 -66013.248 -7202741.861 10 0 59228 19800.00000 0 -25195562.472 65668.550 -4060771.963 10 0 59228 20700.00000 0 -25506758.659 263729.773 -840028.806 10 0 59228 21600.00000 0 -25405636.751 471612.036 2397008.090 10 0 59228 22500.00000 0 -24896237.832 632240.384 5587557.871 10 0 59228 23400.00000 0 -23996126.006 690674.643 8669752.259 10 0 59228 24300.00000 0 -22735671.395 596669.798 11583830.806 10 0 59228 25200.00000 0 -21156817.335 307037.191 14273294.568 10 0 59228 26100.00000 0 -19311383.356 -212293.203 16685996.133 10 0 59228 27000.00000 0 -17258974.719 -984596.628 18775145.389 10 0 59228 27900.00000 0 -15064585.381 -2021134.587 20500212.125 10 0 59228 28800.00000 0 -12795993.891 -3320445.045 21827708.480 10 0 59228 29700.00000 0 -10521060.053 -4868172.642 22731836.690 10 0 59228 30600.00000 0 -8305034.090 -6637447.442 23194989.980 10 0 59228 31500.00000 0 -6207989.607 -8589797.882 23208097.097 10 0 59228 32400.00000 0 -4282486.305 -10676561.568 22770803.803 10 0 59228 33300.00000 0 -2571559.035 -12840736.812 21891487.470 10 0 59228 34200.00000 0 -1107116.385 -15019199.288 20587103.900 10 0 59228 35100.00000 0 91184.940 -17145192.819 18882868.523 10 0 59228 36000.00000 0 1016543.326 -19150991.536 16811777.132 10 0 59228 36900.00000 0 1675068.032 -20970622.920 14413974.460 10 0 59228 37800.00000 0 2085285.475 -22542538.285 11735981.884 10 0 59228 38700.00000 0 2277117.024 -23812118.857 8829798.422 10 0 59228 39600.00000 0 2290371.613 -24733911.969 5751892.054 10 0 59228 40500.00000 0 2172817.247 -25273502.864 2562100.783 10 0 59228 41400.00000 0 1977913.526 -25408942.632 -677535.047 10 0 59228 42300.00000 0 1762301.914 -25131671.361 -3903985.834 10 0 59228 43200.00000 0 1583161.101 -24446896.896 -7054466.853 10 0 59228 44100.00000 0 1495540.660 -23373412.687 -10067668.456 10 0 59228 45000.00000 0 1549787.239 -21942862.089 -12884957.312 10 0 59228 45900.00000 0 1789173.603 -20198480.009 -15451524.399 10 0 59228 46800.00000 0 2247832.110 -18193364.976 -17717456.632 10 0 59228 47700.00000 0 2949081.087 -15988354.601 -19638710.746 10 0 59228 48600.00000 0 3904215.745 -13649593.978 -21177970.281 10 0 59228 49500.00000 0 5111815.418 -11245899.226 -22305369.135 10 0 59228 50400.00000 0 6557596.852 -8846026.836 -22999067.914 10 0 59228 51300.00000 0 8214820.220 -6515962.876 -23245672.452 10 0 59228 52200.00000 0 10045231.201 -4316344.906 -23040487.047 10 0 59228 53100.00000 0 12000499.912 -2300123.613 -22387598.121 10 0 59228 54000.00000 0 14024096.717 -510560.612 -21299787.359 10 0 59228 54900.00000 0 16053526.758 1020355.368 -19798276.483 10 0 59228 55800.00000 0 18022829.978 2273009.332 -17912309.054 10 0 59228 56700.00000 0 19865242.474 3240733.749 -15678577.626 10 0 59228 57600.00000 0 21515908.258 3929832.968 -13140507.526 10 0 59228 58500.00000 0 22914528.331 4359059.154 -10347411.208 10 0 59228 59400.00000 0 24007836.679 4558563.437 -7353529.641 10 0 59228 60300.00000 0 24751799.947 4568367.954 -4216979.232 10 0 59228 61200.00000 0 25113449.040 4436424.309 -998624.818 10 0 59228 62100.00000 0 25072266.358 4216341.331 2239099.457 10 0 59228 63000.00000 0 24621070.833 3964878.706 5433398.572 10 0 59228 63900.00000 0 23766363.974 3739312.704 8522330.888 10 0 59228 64800.00000 0 22528122.569 3594785.501 11446004.881 10 0 59228 65700.00000 0 20939046.729 3581750.100 14147735.422 10 0 59228 66600.00000 0 19043294.590 3743618.705 16575137.425 10 0 59228 67500.00000 0 16894756.214 4114713.803 18681136.235 10 0 59228 68400.00000 0 14554938.199 4718608.499 20424875.696 10 0 59228 69300.00000 0 12090546.544 5566926.338 21772506.849 10 0 59228 70200.00000 0 9570867.609 6658651.764 22697842.568 10 0 59228 71100.00000 0 7065055.181 7979981.168 23182865.870 10 0 59228 72000.00000 0 4639435.570 9504722.045 23218082.250 10 0 59228 72900.00000 0 2354941.771 11195225.040 22802709.253 10 0 59228 73800.00000 0 264782.463 13003811.583 21944699.248 10 0 59228 74700.00000 0 -1587557.881 14874638.999 20660594.443 10 0 59228 75600.00000 0 -3169905.202 16745926.697 18975216.077 10 0 59228 76500.00000 0 -4462502.740 18552451.606 16921192.850 10 0 59228 77400.00000 0 -5458592.686 20228209.360 14538336.727 10 0 59228 78300.00000 0 -6164448.643 21709130.320 11872877.218 10 0 59228 79200.00000 0 -6598857.806 22935736.659 8976568.206 10 0 59228 80100.00000 0 -6792074.971 23855628.626 5905684.177 10 0 59228 81000.00000 0 -6784292.908 24425694.887 2719925.187 10 0 59228 81900.00000 0 -6623694.288 24613953.028 -518748.033 10 0 59228 82800.00000 0 -6364168.264 24400941.744 -3747325.518 10 0 59228 83700.00000 0 -6062789.330 23780605.058 -6902981.767 10 0 59228 84600.00000 0 -5777166.348 22760630.425 -9924306.731 10 0 59228 85500.00000 0 -5562775.226 21362225.838 -12752509.009 10 0 59229 0.00000 0 -5470389.388 19619344.914 -15332566.906 10 0 59229 900.00000 0 -5543718.387 17577392.058 -17614304.476 10 0 59229 1800.00000 0 -5817354.366 15291462.930 -19553370.323 10 0 59229 2700.00000 0 -6315116.067 12824193.113 -21112100.835 10 0 59229 3600.00000 0 -7048858.742 10243306.113 -22260250.564 10 0 59229 4500.00000 0 -8017802.092 7618963.068 -22975576.011 10 0 59229 5400.00000 0 -9208404.193 5021024.904 -23244262.062 10 0 59229 6300.00000 0 -10594787.084 2516340.879 -23061183.435 10 0 59229 7200.00000 0 -12139696.235 166176.051 -22429996.707 10 0 59229 8100.00000 0 -13795953.737 -1976116.019 -21363061.809 10 0 59229 9000.00000 0 -15508344.431 -3867079.612 -19881194.995 10 0 59229 9900.00000 0 -17215856.039 -5474720.788 -18013258.517 10 0 59229 10800.00000 0 -18854179.649 -6779585.444 -15795595.193 10 0 59229 11700.00000 0 -20358366.022 -7775308.270 -13271318.964 10 0 59229 12600.00000 0 -21665526.622 -8468611.477 -10489475.289 10 0 59229 13500.00000 0 -22717466.452 -8878755.206 -7504087.668 10 0 59229 14400.00000 0 -23463138.555 -9036464.395 -4373108.738 10 0 59229 15300.00000 0 -23860817.476 -8982378.661 -1157296.349 10 0 59229 16200.00000 0 -23879900.735 -8765091.703 2080963.580 10 0 59229 17100.00000 0 -23502262.905 -8438863.810 5278864.663 10 0 59229 18000.00000 0 -22723105.580 -8061104.540 8374394.641 10 0 59229 18900.00000 0 -21551267.599 -7689732.218 11307533.564 10 0 59229 19800.00000 0 -20008982.330 -7380521.818 14021412.610 10 0 59229 20700.00000 0 -18131091.917 -7184553.105 16463411.313 10 0 59229 21600.00000 0 -15963750.788 -7145866.607 18586172.479 10 0 59229 22500.00000 0 -13562671.862 -7299426.153 20348515.668 10 0 59229 23400.00000 0 -10990987.766 -7669473.825 21716232.084 10 0 59229 24300.00000 0 -8316815.112 -8268346.840 22662746.060 10 0 59229 25200.00000 0 -5610621.997 -9095806.634 23169630.776 10 0 59229 26100.00000 0 -2942507.087 -10138909.191 23226968.420 10 0 59229 27000.00000 0 -379502.164 -11372423.169 22833547.855 10 0 59229 27900.00000 0 2016990.893 -12759779.715 21996895.647 10 0 59229 28800.00000 0 4193523.014 -14254515.575 20733139.281 10 0 59229 29700.00000 0 6106584.901 -15802150.541 19066704.412 10 0 59229 30600.00000 0 7724175.935 -17342421.862 17029851.003 10 0 59229 31500.00000 0 9026889.914 -18811782.956 14662056.364 10 0 59229 32400.00000 0 10008472.666 -20146062.264 12009256.032 10 0 59229 33300.00000 0 10675828.461 -21283170.836 9122956.444 10 0 59229 34200.00000 0 11048475.219 -22165744.616 6059236.114 10 0 59229 35100.00000 0 11157471.887 -22743609.671 2877654.542 10 0 59229 36000.00000 0 11043863.737 -22975965.647 -359909.805 10 0 59229 36900.00000 0 10756711.904 -22833194.309 -3590469.261 10 0 59229 37800.00000 0 10350791.403 -22298215.766 -6751160.163 10 0 59229 38700.00000 0 9884056.044 -21367334.039 -9780474.580 10 0 59229 39600.00000 0 9414978.725 -20050535.351 -12619465.455 10 0 59229 40500.00000 0 8999880.847 -18371225.820 -15212900.816 10 0 59229 41400.00000 0 8690365.012 -16365418.998 -17510343.793 10 0 59229 42300.00000 0 8530960.543 -14080407.176 -19467136.860 10 0 59229 43200.00000 0 8557082.118 -11572972.036 -21045270.948 10 0 59229 44100.00000 0 8793388.234 -8907209.573 -22214122.624 10 0 59229 45000.00000 0 9252609.070 -6152060.323 -22951045.292 10 0 59229 45900.00000 0 9934893.207 -3378647.887 -23241803.519 10 0 59229 46800.00000 0 10827700.698 -657536.518 -23080842.674 10 0 59229 47700.00000 0 11906246.823 1943978.412 -22471389.334 10 0 59229 48600.00000 0 13134477.740 4364434.985 -21425381.149 10 0 59229 49500.00000 0 14466536.911 6550518.656 -19963228.022 10 0 59229 50400.00000 0 15848660.632 8459030.355 -18113409.671 10 0 59229 51300.00000 0 17221423.087 10058428.316 -15911917.605 10 0 59229 52200.00000 0 18522236.715 11329881.030 -13401552.467 10 0 59229 53100.00000 0 19688003.000 12267789.036 -10631090.464 10 0 59229 54000.00000 0 20657802.498 12879755.601 -7654335.063 10 0 59229 54900.00000 0 21375511.266 13186009.235 -4529072.285 10 0 59229 55800.00000 0 21792233.885 13218303.857 -1315949.955 10 0 59229 56700.00000 0 21868450.982 13018344.245 1922697.386 10 0 59229 57600.00000 0 21575791.073 12635804.161 5124055.147 10 0 59229 58500.00000 0 20898352.276 12126021.439 8226043.513 10 0 59229 59400.00000 0 19833518.301 11547467.725 11168516.990 10 0 59229 60300.00000 0 18392234.154 10959099.810 13894425.715 10 0 59229 61200.00000 0 16598729.579 10417704.213 16350916.219 10 0 59229 62100.00000 0 14489701.164 9975346.827 18490350.862 10 0 59229 63000.00000 0 12112986.380 9677034.821 20271226.714 10 0 59229 63900.00000 0 9525783.915 9558689.057 21658976.614 10 0 59229 64800.00000 0 6792493.229 9645512.222 22626637.504 10 0 59229 65700.00000 0 3982261.901 9950821.443 23155373.508 10 0 59229 66600.00000 0 1166341.455 10475394.769 23234843.883 10 0 59229 67500.00000 0 -1584639.849 11207359.675 22863408.749 10 0 59229 68400.00000 0 -4203375.252 12122629.206 22048168.310 10 0 59229 69300.00000 0 -6628437.670 13185868.561 20804834.275 10 0 59229 70200.00000 0 -8806592.390 14351952.825 19157435.164 10 0 59229 71100.00000 0 -10694768.786 15567855.860 17137860.201 10 0 59229 72000.00000 0 -12261609.227 16774892.016 14785249.653 10 0 59229 72900.00000 0 -13488530.942 17911217.238 12145242.419 10 0 59229 73800.00000 0 -14370256.620 18914484.720 9269094.623 10 0 59229 74700.00000 0 -14914791.681 19724543.223 6212685.847 10 0 59229 75600.00000 0 -15142849.483 20286063.928 3035432.062 10 0 59229 76500.00000 0 -15086749.066 20550984.179 -200873.488 10 0 59229 77400.00000 0 -14788832.450 20480663.917 -3433268.309 10 0 59229 78300.00000 0 -14299469.142 20047662.501 -6598853.354 10 0 59229 79200.00000 0 -13674733.084 19237059.649 -9636025.446 10 0 59229 80100.00000 0 -12973851.404 18047263.531 -12485684.321 10 0 59229 81000.00000 0 -12256533.965 16490270.913 -15092389.889 10 0 59229 81900.00000 0 -11580297.745 14591367.505 -17405446.403 10 0 59229 82800.00000 0 -10997900.077 12388280.559 -19379891.833 10 0 59229 83700.00000 0 -10554989.914 9929818.849 -20977372.999 10 0 59229 84600.00000 0 -10288076.692 7274056.731 -22166889.542 10 0 59229 85500.00000 0 -10222902.673 4486138.141 -22925392.522 99